• In Portugal
  • List of Countries
  • For 7 days
  • Water Temperature
  • Satellite Maps
  • Weather Map
  • Weather Widgets
  • user-avatar
    Login

    Hourly Weather Ghanzi

    Today, 13 December, Wednesday

    Time Temperature Precipitation Wind Pressure Humidity
    00:00 +20°C° 0 mm 4 mps 719 mmHg 33%
    01:00 +19°C° 0 mm 4 mps 719 mmHg 34%
    02:00 +19°C° 0 mm 4 mps 719 mmHg 35%
    03:00 +18°C° 0 mm 4 mps 719 mmHg 36%
    04:00 +18°C° 0 mm 4 mps 719 mmHg 37%
    05:00 +18°C° 0 mm 4 mps 719 mmHg 37%
    06:00 +17°C° 0 mm 4 mps 719 mmHg 38%
    07:00 +17°C° 0 mm 4 mps 719 mmHg 38%
    08:00 +20°C° 0 mm 4 mps 720 mmHg 33%
    09:00 +22°C° 0 mm 4 mps 720 mmHg 28%
    10:00 +26°C° 0 mm 5 mps 720 mmHg 23%
    11:00 +27°C° 0 mm 5 mps 720 mmHg 21%
    12:00 +29°C° 0 mm 4 mps 720 mmHg 19%
    13:00 +30°C° 0 mm 4 mps 719 mmHg 17%
    14:00 +30°C° 0 mm 4 mps 719 mmHg 17%
    15:00 +29°C° 0 mm 4 mps 719 mmHg 17%
    16:00 +29°C° 0 mm 4 mps 718 mmHg 17%
    17:00 +27°C° 0 mm 4 mps 718 mmHg 20%
    18:00 +25°C° 0 mm 4 mps 719 mmHg 22%
    19:00 +22°C° 0 mm 5 mps 719 mmHg 25%
    20:00 +22°C° 0 mm 5 mps 719 mmHg 26%
    21:00 +21°C° 0 mm 5 mps 719 mmHg 28%
    22:00 +20°C° 0 mm 5 mps 720 mmHg 29%
    23:00 +19°C° 0 mm 5 mps 720 mmHg 31%

    Tomorrow, 14 December, Thursday

    Time Temperature Precipitation Wind Pressure Humidity
    00:00 +19°C° 0 mm 5 mps 720 mmHg 33%
    01:00 +17°C° 0 mm 5 mps 720 mmHg 36%
    02:00 +16°C° 0 mm 5 mps 720 mmHg 39%
    03:00 +15°C° 0 mm 5 mps 719 mmHg 43%
    04:00 +15°C° 0 mm 4 mps 719 mmHg 46%
    05:00 +15°C° 0 mm 4 mps 719 mmHg 48%
    06:00 +14°C° 0 mm 4 mps 720 mmHg 49%
    07:00 +14°C° 0 mm 4 mps 720 mmHg 51%
    08:00 +17°C° 0 mm 4 mps 720 mmHg 44%
    09:00 +20°C° 0 mm 5 mps 721 mmHg 38%
    10:00 +22°C° 0 mm 5 mps 721 mmHg 32%
    11:00 +23°C° 0 mm 6 mps 721 mmHg 28%
    12:00 +24°C° 0 mm 6 mps 720 mmHg 25%
    13:00 +27°C° 0 mm 6 mps 719 mmHg 21%
    14:00 +26°C° 0 mm 6 mps 719 mmHg 21%
    15:00 +26°C° 0 mm 6 mps 719 mmHg 22%
    16:00 +24°C° 0 mm 6 mps 718 mmHg 22%
    17:00 +23°C° 0 mm 6 mps 719 mmHg 24%
    18:00 +21°C° 0 mm 5 mps 719 mmHg 27%
    19:00 +19°C° 0 mm 5 mps 719 mmHg 30%
    20:00 +19°C° 0 mm 5 mps 720 mmHg 32%
    21:00 +17°C° 0 mm 5 mps 720 mmHg 34%
    22:00 +16°C° 0 mm 5 mps 720 mmHg 36%
    23:00 +16°C° 0 mm 5 mps 720 mmHg 39%

    Day after tomorrow, 15 December, Friday

    Time Temperature Precipitation Wind Pressure Humidity
    00:00 +15°C° 0 mm 5 mps 719 mmHg 41%
    01:00 +14°C° 0 mm 5 mps 719 mmHg 43%
    02:00 +14°C° 0 mm 5 mps 719 mmHg 46%
    03:00 +13°C° 0 mm 5 mps 719 mmHg 48%
    04:00 +13°C° 0 mm 5 mps 718 mmHg 50%
    05:00 +13°C° 0 mm 5 mps 719 mmHg 51%
    06:00 +13°C° 0 mm 4 mps 719 mmHg 52%
    07:00 +13°C° 0 mm 4 mps 720 mmHg 53%
    08:00 +15°C° 0 mm 5 mps 720 mmHg 46%
    09:00 +17°C° 0 mm 5 mps 720 mmHg 39%
    10:00 +20°C° 0 mm 6 mps 721 mmHg 32%
    11:00 +21°C° 0 mm 5 mps 720 mmHg 28%
    12:00 +22°C° 0 mm 5 mps 719 mmHg 24%
    13:00 +25°C° 0 mm 5 mps 719 mmHg 21%
    14:00 +23°C° 0 mm 5 mps 719 mmHg 20%
    15:00 +23°C° 0 mm 5 mps 718 mmHg 20%
    16:00 +23°C° 0 mm 4 mps 718 mmHg 20%
    17:00 +21°C° 0 mm 4 mps 718 mmHg 23%
    18:00 +20°C° 0 mm 4 mps 719 mmHg 25%
    19:00 +18°C° 0 mm 4 mps 719 mmHg 28%
    20:00 +17°C° 0 mm 4 mps 719 mmHg 30%
    21:00 +17°C° 0 mm 4 mps 719 mmHg 32%
    22:00 +15°C° 0 mm 4 mps 719 mmHg 34%
    23:00 +14°C° 0 mm 4 mps 719 mmHg 36%

    16 December, Saturday

    Time Temperature Precipitation Wind Pressure Humidity
    00:00 +14°C° 0 mm 4 mps 719 mmHg 38%
    01:00 +13°C° 0 mm 4 mps 718 mmHg 40%
    02:00 +13°C° 0 mm 3 mps 718 mmHg 41%
    03:00 +12°C° 0 mm 3 mps 718 mmHg 42%
    04:00 +12°C° 0 mm 3 mps 717 mmHg 43%
    05:00 +12°C° 0 mm 3 mps 718 mmHg 41%
    06:00 +12°C° 0 mm 3 mps 718 mmHg 40%
    07:00 +13°C° 0 mm 2 mps 718 mmHg 39%
    08:00 +15°C° 0 mm 2 mps 718 mmHg 33%
    09:00 +17°C° 0 mm 2 mps 719 mmHg 28%
    10:00 +20°C° 0 mm 3 mps 719 mmHg 22%
    11:00 +21°C° 0 mm 2 mps 718 mmHg 20%
    12:00 +24°C° 0 mm 2 mps 718 mmHg 17%
    13:00 +25°C° 0 mm 2 mps 717 mmHg 15%
    14:00 +25°C° 0 mm 2 mps 717 mmHg 15%
    15:00 +25°C° 0 mm 2 mps 716 mmHg 14%
    16:00 +25°C° 0 mm 2 mps 716 mmHg 14%
    17:00 +23°C° 0 mm 2 mps 716 mmHg 16%
    18:00 +20°C° 0 mm 2 mps 717 mmHg 18%
    19:00 +19°C° 0 mm 2 mps 717 mmHg 20%
    20:00 +18°C° 0 mm 3 mps 717 mmHg 21%
    21:00 +18°C° 0 mm 3 mps 717 mmHg 22%
    22:00 +17°C° 0 mm 3 mps 717 mmHg 22%
    23:00 +17°C° 0 mm 3 mps 717 mmHg 23%

    17 December, Sunday

    Time Temperature Precipitation Wind Pressure Humidity
    00:00 +16°C° 0 mm 2 mps 717 mmHg 24%
    01:00 +16°C° 0 mm 2 mps 716 mmHg 25%
    02:00 +15°C° 0 mm 2 mps 716 mmHg 25%
    03:00 +14°C° 0 mm 3 mps 715 mmHg 26%
    04:00 +14°C° 0 mm 3 mps 715 mmHg 26%
    05:00 +15°C° 0 mm 2 mps 716 mmHg 27%
    06:00 +15°C° 0 mm 2 mps 716 mmHg 27%
    07:00 +15°C° 0 mm 2 mps 716 mmHg 28%
    08:00 +17°C° 0 mm 2 mps 717 mmHg 25%
    09:00 +19°C° 0 mm 2 mps 717 mmHg 22%
    10:00 +21°C° 0 mm 2 mps 717 mmHg 19%
    11:00 +24°C° 0 mm 2 mps 717 mmHg 17%
    12:00 +25°C° 0 mm 2 mps 716 mmHg 15%
    13:00 +26°C° 0 mm 2 mps 716 mmHg 13%
    14:00 +26°C° 0 mm 2 mps 715 mmHg 13%
    15:00 +26°C° 0 mm 2 mps 715 mmHg 13%
    16:00 +26°C° 0 mm 2 mps 715 mmHg 12%
    17:00 +24°C° 0 mm 2 mps 715 mmHg 14%
    18:00 +22°C° 0 mm 3 mps 716 mmHg 16%
    19:00 +20°C° 0 mm 3 mps 716 mmHg 17%
    20:00 +19°C° 0 mm 3 mps 716 mmHg 18%
    21:00 +19°C° 0 mm 3 mps 716 mmHg 19%
    22:00 +18°C° 0 mm 3 mps 717 mmHg 20%
    23:00 +18°C° 0 mm 3 mps 716 mmHg 21%

    18 December, Monday

    Time Temperature Precipitation Wind Pressure Humidity
    00:00 +17°C° 0 mm 3 mps 716 mmHg 23%
    01:00 +16°C° 0 mm 3 mps 716 mmHg 24%
    02:00 +16°C° 0 mm 2 mps 715 mmHg 25%
    03:00 +15°C° 0 mm 2 mps 715 mmHg 27%
    04:00 +14°C° 0 mm 2 mps 715 mmHg 28%
    05:00 +15°C° 0 mm 2 mps 716 mmHg 28%
    06:00 +15°C° 0 mm 2 mps 716 mmHg 27%
    07:00 +15°C° 0 mm 2 mps 716 mmHg 27%
    08:00 +18°C° 0 mm 2 mps 717 mmHg 23%
    09:00 +20°C° 0 mm 2 mps 717 mmHg 20%
    10:00 +23°C° 0 mm 2 mps 717 mmHg 17%
    11:00 +24°C° 0 mm 2 mps 717 mmHg 15%
    12:00 +26°C° 0 mm 2 mps 716 mmHg 14%
    13:00 +27°C° 0 mm 2 mps 715 mmHg 12%
    14:00 +27°C° 0 mm 2 mps 715 mmHg 12%
    15:00 +26°C° 0 mm 2 mps 715 mmHg 12%
    16:00 +26°C° 0 mm 2 mps 715 mmHg 12%
    17:00 +24°C° 0 mm 2 mps 715 mmHg 14%
    18:00 +23°C° 0 mm 2 mps 715 mmHg 16%
    19:00 +20°C° 0 mm 2 mps 715 mmHg 18%
    20:00 +19°C° 0 mm 3 mps 715 mmHg 18%
    21:00 +19°C° 0 mm 3 mps 715 mmHg 19%
    22:00 +19°C° 0 mm 3 mps 715 mmHg 19%
    23:00 +18°C° 0 mm 3 mps 715 mmHg 20%
    Show more